Time,TemperatureF,DewpointF,PressureIn,WindDirection,WindDirectionDegrees,WindSpeedMPH,WindSpeedGustMPH,Humidity,HourlyPrecipIn,Conditions,Clouds,dailyrainin,SoftwareType,DateUTC
2013-06-13 00:00:00,65.9,63.0,29.82,East,80,0.0,0.0,90,0.00,,,0.00,weatherlink.com 1.10,2013-06-13 04:00:00,
2013-06-13 00:15:00,65.5,62.0,29.82,East,80,0.0,0.0,89,0.00,,,0.00,weatherlink.com 1.10,2013-06-13 04:15:00,
2013-06-13 00:30:00,65.3,62.0,29.80,East,80,0.0,0.0,90,0.00,,,0.00,weatherlink.com 1.10,2013-06-13 04:30:00,
2013-06-13 00:45:00,65.2,62.0,29.80,East,80,0.0,0.0,90,0.00,,,0.00,weatherlink.com 1.10,2013-06-13 04:45:00,
2013-06-13 01:00:00,65.1,62.0,29.79,East,80,0.0,0.0,90,0.00,,,0.00,weatherlink.com 1.10,2013-06-13 05:00:00,
2013-06-13 01:15:00,65.3,63.0,29.79,East,80,0.0,0.0,91,0.00,,,0.00,weatherlink.com 1.10,2013-06-13 05:15:00,
2013-06-13 01:30:00,65.1,63.0,29.78,East,80,0.0,2.0,91,0.00,,,0.00,weatherlink.com 1.10,2013-06-13 05:30:00,
2013-06-13 01:45:00,65.3,63.0,29.78,East,80,0.0,0.0,91,0.00,,,0.00,weatherlink.com 1.10,2013-06-13 05:45:00,
2013-06-13 02:00:00,65.3,63.0,29.78,East,80,0.0,0.0,91,0.00,,,0.00,weatherlink.com 1.10,2013-06-13 06:00:00,
2013-06-13 02:15:00,65.3,62.0,29.77,East,80,0.0,1.0,90,0.00,,,0.00,weatherlink.com 1.10,2013-06-13 06:15:00,
2013-06-13 02:30:00,65.4,63.0,29.77,East,80,0.0,0.0,90,0.00,,,0.00,weatherlink.com 1.10,2013-06-13 06:30:00,
2013-06-13 02:45:00,65.6,63.0,29.77,East,80,0.0,1.0,90,0.00,,,0.00,weatherlink.com 1.10,2013-06-13 06:45:00,
2013-06-13 03:00:00,65.6,63.0,29.77,East,80,0.0,0.0,90,0.00,,,0.00,weatherlink.com 1.10,2013-06-13 07:00:00,
2013-06-13 03:15:00,65.5,63.0,29.75,East,80,0.0,1.0,90,0.00,,,0.00,weatherlink.com 1.10,2013-06-13 07:15:00,
2013-06-13 03:30:00,65.5,63.0,29.75,East,80,0.0,1.0,90,0.00,,,0.00,weatherlink.com 1.10,2013-06-13 07:30:00,
2013-06-13 03:45:00,65.4,63.0,29.75,East,80,0.0,1.0,91,0.00,,,0.00,weatherlink.com 1.10,2013-06-13 07:45:00,
2013-06-13 04:00:00,65.3,63.0,29.74,East,80,0.0,1.0,91,0.00,,,0.00,weatherlink.com 1.10,2013-06-13 08:00:00,
2013-06-13 04:15:00,65.4,63.0,29.73,East,80,0.0,1.0,91,0.00,,,0.00,weatherlink.com 1.10,2013-06-13 08:15:00,
2013-06-13 04:30:00,65.3,63.0,29.73,East,80,0.0,2.0,91,0.00,,,0.00,weatherlink.com 1.10,2013-06-13 08:30:00,
2013-06-13 04:45:00,65.7,63.0,29.73,ENE,75,0.0,1.0,90,0.00,,,0.00,weatherlink.com 1.10,2013-06-13 08:45:00,
2013-06-13 05:00:00,66.0,63.0,29.72,ENE,76,0.0,1.0,89,0.00,,,0.00,weatherlink.com 1.10,2013-06-13 09:00:00,
2013-06-13 05:15:00,66.1,63.0,29.71,East,80,0.0,3.0,89,0.00,,,0.00,weatherlink.com 1.10,2013-06-13 09:15:00,
2013-06-13 05:30:00,66.2,63.0,29.72,East,86,0.0,1.0,90,0.00,,,0.00,weatherlink.com 1.10,2013-06-13 09:30:00,
2013-06-13 05:45:00,65.0,63.0,29.71,East,98,5.0,8.0,93,0.41,,,0.41,weatherlink.com 1.10,2013-06-13 09:45:00,
2013-06-13 06:00:00,63.9,63.0,29.71,ESE,112,1.0,5.0,95,0.41,,,0.41,weatherlink.com 1.10,2013-06-13 10:00:00,
2013-06-13 06:16:00,63.5,62.0,29.70,ESE,102,0.0,1.0,95,0.41,,,0.41,weatherlink.com 1.10,2013-06-13 10:16:00,
2013-06-13 06:31:00,63.3,62.0,29.69,SE,138,0.0,3.0,96,0.41,,,0.41,weatherlink.com 1.10,2013-06-13 10:31:00,
2013-06-13 06:46:00,63.0,62.0,29.68,South,171,1.0,6.0,96,0.00,,,0.41,weatherlink.com 1.10,2013-06-13 10:46:00,
2013-06-13 07:01:00,62.9,62.0,29.68,SSE,168,0.0,1.0,96,0.00,,,0.41,weatherlink.com 1.10,2013-06-13 11:01:00,
2013-06-13 07:16:00,62.9,62.0,29.67,East,95,2.0,7.0,96,0.00,,,0.41,weatherlink.com 1.10,2013-06-13 11:16:00,
2013-06-13 07:31:00,63.2,62.0,29.66,East,92,0.0,3.0,95,0.00,,,0.41,weatherlink.com 1.10,2013-06-13 11:31:00,
2013-06-13 07:46:00,63.3,62.0,29.65,East,86,0.0,3.0,95,0.00,,,0.41,weatherlink.com 1.10,2013-06-13 11:46:00,
2013-06-13 08:01:00,63.2,62.0,29.62,East,86,3.0,5.0,96,0.00,,,0.41,weatherlink.com 1.10,2013-06-13 12:01:00,
2013-06-13 08:16:00,63.3,62.0,29.65,NNW,328,0.0,6.0,96,0.01,,,0.42,weatherlink.com 1.10,2013-06-13 12:16:00,
2013-06-13 08:31:00,63.5,62.0,29.64,ENE,72,0.0,4.0,96,0.05,,,0.46,weatherlink.com 1.10,2013-06-13 12:31:00,
2013-06-13 08:46:00,63.6,63.0,29.67,SSW,205,0.0,1.0,96,0.11,,,0.52,weatherlink.com 1.10,2013-06-13 12:46:00,
2013-06-13 09:01:00,62.4,61.0,29.67,East,84,0.0,4.0,96,0.55,,,0.96,weatherlink.com 1.10,2013-06-13 13:01:00,
2013-06-13 09:16:00,61.5,61.0,29.61,ESE,113,7.0,9.0,97,0.64,,,1.06,weatherlink.com 1.10,2013-06-13 13:16:00,
2013-06-13 09:31:00,61.4,61.0,29.59,East,90,3.0,11.0,97,0.60,,,1.06,weatherlink.com 1.10,2013-06-13 13:31:00,
2013-06-13 09:46:00,61.8,61.0,29.60,East,81,0.0,5.0,98,0.54,,,1.06,weatherlink.com 1.10,2013-06-13 13:46:00,
2013-06-13 10:01:00,62.6,62.0,29.59,East,82,0.0,4.0,98,0.09,,,1.06,weatherlink.com 1.10,2013-06-13 14:01:00,
2013-06-13 10:16:00,63.5,63.0,29.59,East,82,0.0,1.0,98,0.00,,,1.06,weatherlink.com 1.10,2013-06-13 14:16:00,
2013-06-13 10:31:00,64.8,65.0,29.59,SSW,199,0.0,3.0,99,0.00,,,1.06,weatherlink.com 1.10,2013-06-13 14:31:00,
2013-06-13 10:46:00,66.2,66.0,29.56,SSE,163,1.0,5.0,99,0.00,,,1.06,weatherlink.com 1.10,2013-06-13 14:46:00,
2013-06-13 11:01:00,67.3,67.0,29.56,SSE,147,0.0,4.0,99,0.00,,,1.06,weatherlink.com 1.10,2013-06-13 15:01:00,
2013-06-13 11:16:00,70.7,70.0,29.54,WSW,251,0.0,3.0,98,0.00,,,1.06,weatherlink.com 1.10,2013-06-13 15:16:00,
2013-06-13 11:31:00,71.3,69.0,29.54,SSE,150,0.0,5.0,91,0.00,,,1.06,weatherlink.com 1.10,2013-06-13 15:31:00,
2013-06-13 11:46:00,72.7,71.0,29.53,SSE,151,0.0,3.0,93,0.00,,,1.06,weatherlink.com 1.10,2013-06-13 15:46:00,
2013-06-13 12:01:00,73.3,69.0,29.53,SW,217,0.0,3.0,86,0.00,,,1.06,weatherlink.com 1.10,2013-06-13 16:01:00,
2013-06-13 12:17:00,74.8,69.0,29.53,SW,230,3.0,6.0,83,0.00,,,1.06,weatherlink.com 1.10,2013-06-13 16:17:00,
2013-06-13 12:32:00,75.1,70.0,29.52,South,181,0.0,7.0,83,0.00,,,1.06,weatherlink.com 1.10,2013-06-13 16:32:00,
2013-06-13 12:47:00,74.8,69.0,29.52,SW,219,0.0,3.0,82,0.00,,,1.06,weatherlink.com 1.10,2013-06-13 16:47:00,
2013-06-13 13:02:00,75.7,70.0,29.49,SW,218,2.0,5.0,81,0.00,,,1.06,weatherlink.com 1.10,2013-06-13 17:02:00,
2013-06-13 13:17:00,76.8,71.0,29.49,ESE,122,0.0,4.0,81,0.00,,,1.06,weatherlink.com 1.10,2013-06-13 17:17:00,
2013-06-13 13:32:00,77.5,70.0,29.48,South,180,2.0,7.0,78,0.00,,,1.06,weatherlink.com 1.10,2013-06-13 17:32:00,
2013-06-13 13:47:00,78.5,70.0,29.47,West,267,6.0,7.0,75,0.00,,,1.06,weatherlink.com 1.10,2013-06-13 17:47:00,
2013-06-13 14:02:00,78.7,70.0,29.47,WNW,292,0.0,7.0,75,0.00,,,1.06,weatherlink.com 1.10,2013-06-13 18:02:00,
2013-06-13 14:17:00,79.6,71.0,29.46,SE,146,3.0,6.0,75,0.00,,,1.06,weatherlink.com 1.10,2013-06-13 18:17:00,
2013-06-13 14:32:00,80.3,71.0,29.46,SW,219,1.0,3.0,74,0.00,,,1.06,weatherlink.com 1.10,2013-06-13 18:32:00,
2013-06-13 14:47:00,80.8,71.0,29.45,SSE,167,2.0,7.0,71,0.00,,,1.06,weatherlink.com 1.10,2013-06-13 18:47:00,
2013-06-13 15:02:00,81.3,71.0,29.44,West,272,1.0,6.0,72,0.00,,,1.06,weatherlink.com 1.10,2013-06-13 19:02:00,
2013-06-13 15:17:00,81.3,70.0,29.44,SW,228,2.0,12.0,68,0.00,,,1.06,weatherlink.com 1.10,2013-06-13 19:17:00,
2013-06-13 15:32:00,80.9,70.0,29.44,WSW,241,1.0,10.0,69,0.00,,,1.06,weatherlink.com 1.10,2013-06-13 19:32:00,
2013-06-13 15:47:00,80.5,69.0,29.44,WSW,258,4.0,8.0,68,0.00,,,1.06,weatherlink.com 1.10,2013-06-13 19:47:00,
2013-06-13 16:02:00,80.3,71.0,29.43,SW,223,2.0,7.0,72,0.00,,,1.06,weatherlink.com 1.10,2013-06-13 20:02:00,
2013-06-13 16:17:00,81.1,70.0,29.43,West,280,0.0,9.0,70,0.00,,,1.06,weatherlink.com 1.10,2013-06-13 20:17:00,
2013-06-13 16:32:00,80.5,70.0,29.43,WNW,291,5.0,8.0,71,0.00,,,1.06,weatherlink.com 1.10,2013-06-13 20:32:00,
2013-06-13 16:47:00,79.6,69.0,29.42,WNW,294,1.0,8.0,71,0.00,,,1.06,weatherlink.com 1.10,2013-06-13 20:47:00,
2013-06-13 17:02:00,78.9,70.0,29.42,WNW,288,1.0,4.0,73,0.00,,,1.06,weatherlink.com 1.10,2013-06-13 21:02:00,
2013-06-13 17:17:00,78.6,69.0,29.42,West,281,0.0,5.0,73,0.00,,,1.06,weatherlink.com 1.10,2013-06-13 21:17:00,
2013-06-13 17:32:00,78.8,68.0,29.42,West,277,5.0,9.0,70,0.00,,,1.06,weatherlink.com 1.10,2013-06-13 21:32:00,
2013-06-13 17:47:00,78.7,68.0,29.42,WNW,301,6.0,10.0,69,0.00,,,1.06,weatherlink.com 1.10,2013-06-13 21:47:00,
2013-06-13 18:02:00,78.1,66.0,29.41,West,279,6.0,11.0,67,0.00,,,1.06,weatherlink.com 1.10,2013-06-13 22:02:00,
2013-06-13 18:17:00,77.5,67.0,29.41,NW,318,0.0,10.0,69,0.00,,,1.06,weatherlink.com 1.10,2013-06-13 22:17:00,
2013-06-13 18:32:00,77.1,67.0,29.41,NW,304,7.0,8.0,71,0.00,,,1.06,weatherlink.com 1.10,2013-06-13 22:32:00,
2013-06-13 18:47:00,76.5,66.0,29.41,NW,323,8.0,15.0,70,0.00,,,1.06,weatherlink.com 1.10,2013-06-13 22:47:00,
2013-06-13 19:02:00,75.5,65.0,29.43,West,279,6.0,12.0,71,0.00,,,1.06,weatherlink.com 1.10,2013-06-13 23:02:00,
2013-06-13 19:17:00,74.1,65.0,29.44,WNW,300,4.0,17.0,72,0.00,,,1.06,weatherlink.com 1.10,2013-06-13 23:17:00,
2013-06-13 19:32:00,73.0,65.0,29.44,NNW,340,5.0,9.0,75,0.00,,,1.06,weatherlink.com 1.10,2013-06-13 23:32:00,
2013-06-13 19:47:00,72.1,64.0,29.45,NW,317,3.0,14.0,76,0.00,,,1.06,weatherlink.com 1.10,2013-06-13 23:47:00,
2013-06-13 20:02:00,71.1,64.0,29.46,NW,324,4.0,14.0,77,0.00,,,1.06,weatherlink.com 1.10,2013-06-14 00:02:00,
2013-06-13 20:17:00,70.5,63.0,29.46,NW,310,9.0,14.0,78,0.00,,,1.06,weatherlink.com 1.10,2013-06-14 00:17:00,
2013-06-13 20:32:00,70.1,64.0,29.46,NW,309,0.0,11.0,80,0.00,,,1.06,weatherlink.com 1.10,2013-06-14 00:32:00,
2013-06-13 20:47:00,69.3,63.0,29.46,NW,304,2.0,13.0,81,0.00,,,1.06,weatherlink.com 1.10,2013-06-14 00:47:00,
2013-06-13 21:02:00,67.8,64.0,29.47,NNW,329,2.0,13.0,86,0.00,,,1.06,weatherlink.com 1.10,2013-06-14 01:02:00,
2013-06-13 21:17:00,66.7,64.0,29.47,NW,313,0.0,8.0,90,0.02,,,1.08,weatherlink.com 1.10,2013-06-14 01:17:00,
2013-06-13 21:32:00,65.9,64.0,29.48,NW,318,3.0,10.0,92,0.04,,,1.10,weatherlink.com 1.10,2013-06-14 01:32:00,
2013-06-13 21:47:00,65.6,64.0,29.48,WNW,283,0.0,7.0,93,0.05,,,1.11,weatherlink.com 1.10,2013-06-14 01:47:00,
2013-06-13 22:02:00,65.4,64.0,29.49,NW,311,6.0,8.0,94,0.06,,,1.12,weatherlink.com 1.10,2013-06-14 02:02:00,
2013-06-13 22:17:00,65.1,63.0,29.50,NW,309,1.0,10.0,94,0.04,,,1.12,weatherlink.com 1.10,2013-06-14 02:17:00,
2013-06-13 22:32:00,64.6,63.0,29.51,East,101,2.0,7.0,93,0.02,,,1.12,weatherlink.com 1.10,2013-06-14 02:32:00,
2013-06-13 22:47:00,63.3,61.0,29.53,NNE,22,2.0,9.0,92,0.02,,,1.13,weatherlink.com 1.10,2013-06-14 02:47:00,
2013-06-13 23:02:00,61.4,59.0,29.53,ENE,75,5.0,12.0,92,0.01,,,1.13,weatherlink.com 1.10,2013-06-14 03:02:00,
2013-06-13 23:17:00,60.5,59.0,29.54,South,175,6.0,15.0,93,0.02,,,1.14,weatherlink.com 1.10,2013-06-14 03:17:00,
2013-06-13 23:33:00,59.9,58.0,29.55,East,89,0.0,11.0,93,0.02,,,1.14,weatherlink.com 1.10,2013-06-14 03:33:00,
2013-06-13 23:48:00,59.8,58.0,29.56,East,83,1.0,7.0,93,0.01,,,1.14,weatherlink.com 1.10,2013-06-14 03:48:00,